{"data":{"norad_id":43651,"intl_designator":"2018-079A","name":"AEHF-4 (USA 288)","alt_names":[],"object_type":"PAYLOAD","status":"ACTIVE","operator":null,"country":"US","launch_date":"2018-10-17","launch_site_code":"AFETR","launch_vehicle":null,"mission":null,"orbit_class":"UNKNOWN","rcs_meters":null,"size_class":null,"mass_kg":null,"dimensions":null,"purposes":["comms"],"wikipedia_slug":null,"has_3d_model":false,"image_url":null,"decayed_at":null,"tle_current":{"epoch":"2026-05-25T03:55:45.145344Z","epoch_age_seconds":54863,"freshness":"FRESH","line1":"1 43651U 18079A   26145.16371696 -.00000277  00000+0  00000+0 0  9996","line2":"2 43651   1.4284   2.0364 0062076 357.3001 234.8000  1.00268724 28068","mean_motion":1.00268724,"eccentricity":0.0062076,"inclination_deg":1.4284,"raan_deg":2.0364,"arg_perigee_deg":357.3001,"mean_anomaly_deg":234.8,"bstar":0,"rev_number":2806,"period_min":1436.140745144,"perigee_km":35525.705975381,"apogee_km":36049.200209496,"semimajor_km":42165.590092438,"source":"CELESTRAK","updated_at":"2026-05-25T13:38:14.057445Z"}}}